DMSP 5D-2 F11 DEB, 28312

Orbit data source: Space-Track

DMSP 5D-2 F11 DEB, 28312 is space debris in SSO originally from a launch on Thu, 28 Nov 1991 UTC launched from the Air Force Western Test Range (AFWTR). Debris objects in space refer to the collection of defunct objects orbiting the Earth. Examples of debris include non-operational satellites, rocket bodies, and fragments generated from explosions, collisions, or faulty payload assembly.

Loading next visibility...
Identifier
28312, 1991-082Z
Orbit
SSO
Country
Flag of USUS
Related business
Manufacturer
Unknown
Mission
Spacecraft
Bus & Motor
Unknown
Mass
Unknown
Launch date (UTC)
1991-11-28 (34 years ago)
Launch vehicle
Unknown
Launch site
Air Force Western Test Range (AFWTR)
Object type
Payload
Rocket body
Debris
Shape & HBR
Unknown shape, 0.1 m
Radar Cross Section
Small (<0.1 m²)

Expand to show TLE details & history
Last TLE update: 1 day ago

TLE from 1 day ago
0 DMSP 5D-2 F11 DEB
1 28312U 91082Z   25349.05892791  .00001072  00000-0  47017-3 0  9992
2 28312  98.6262  20.2027 0010076 286.7244  73.2830 14.25666407120996
Epoch: 2025-12-15T01:24Z
TLE epoch observation values (Epoch: 2025-12-15T01:24:51.371Z)
Latitude
-0°
Longitude
-84.97428°
Altitude
807.102 km
Speed
7.451 km/s
True Right ascension
01h 20m 48s
True Declination
0° 00' 00"
Sunlit
Object was in daylight at epoch
Visualization orbit readout
Latitude
Unknown
Longitude
Unknown
Altitude
Unknown
Speed
Unknown
Apparent Right ascension
Unknown
Apparent Declination
Unknown
Sunlit
N/A
Visualization observer readout
Local Sidereal Time
03:06:10
Azimuth
Unknown
Elevation
Unknown
Doppler factor
Unknown
Orbital elements
Apogee altitude
810.636 km
Perigee altitude
796.164 km
Semi-major axis
7,181.537 km
Eccentricity
0.00101
Inclination
98.6262°
RAAN
20.2027°
Arg. of periapsis
286.7244°
True anomaly
73.39362°
Mean anomaly
73.283°
Eccentric anomaly
73.33831°
Mean motion
3.56629 °/min
Orbital period
100.95 mins
BSTAR
0.00047017
Loading maneuver chart data...
Computing Atmospheric mass density...

Documentation

Showing up to 5 results
|